Tracking 19570 objects as of 21-Feb-2019
HD Live streaming from Space Station
objects crossing your sky now

NAVSTAR 61 (USA 199)

Track NAVSTAR 61 (USA 199) now!
NAVSTAR 61 (USA 199) is classified as:


NORAD ID: 32384
Int'l Code: 2007-062A
Perigee: 20,175.4 km
Apogee: 20,200.9 km
Inclination: 56.5 °
Period: 717.9 minutes
Semi major axis: 26559 km
RCS: 2 m2 (large)
Launch date: December 20, 2007
Source: United States (US)
Launch site: AIR FORCE EASTERN TEST RANGE (AFETR)
PRN: 29

The GPS 2R-18 spacecraft is the fifth in a series of eight with enhanced features designed to rejuvenate the GPS constellation
aabbcc
Your satellite tracking list
Your tracking list is empty




NASA's NSSDC Master Catalog

Two Line Element Set (TLE):
1 32384U 07062A   19051.38042036 -.00000072  00000-0  00000+0 0  9996
2 32384  56.4577  19.6997 0004810  79.5579  80.4035  2.00577070 81942
Source of the keplerian elements: AFSPC